TIANWANG 1A (TW-1A)
1 40928U 15051D   19296.76610003  .00002367  00000-0  58581-4 0  9994
2 40928  97.1353 325.2319 0010268 340.9489 129.8831 15.41382524228742
LAPAN A2
1 40931U 15052B   19292.20985073  .00000520  00000-0 -16657-4 0  9994
2 40931   6.0031 262.9347 0012513  91.7878 268.3684 14.76616194219402
LQSAT
1 40958U 15057A   19296.72090266 -.00000009 +00000-0 +63146-5 0  9998
2 40958 097.8862 002.4020 0017976 189.3480 170.7396 14.73092764217511
CHUBUSAT 2
1 41338U 16012B   19296.77737310 +.00000332 +00000-0 +19055-4 0  9993
2 41338 031.0038 057.0993 0013926 282.3089 077.5987 15.00196661202015
CHUBUSAT 3
1 41339U 16012C   19296.73211846  .00000294  00000-0  16077-4 0  9999
2 41339  31.0106  55.3162 0013827 289.2726  70.6417 15.00368474202009
OUFTI-1
1 41458U 16025C   19296.83049839 +.00000834 +00000-0 +46723-4 0  9998
2 41458 098.1004 030.1421 0164397 289.6927 068.6627 15.06096757191709
E-STAR-2
1 41459U 16025D   19296.81146783  .00001186  00000-0  64861-4 0  9997
2 41459  98.0997  29.7093 0165738 291.1349  67.2239 15.05717525191677
AAUSAT 4
1 41460U 16025E   19296.82381091 +.00000852 +00000-0 +46848-4 0  9997
2 41460 098.0916 031.2907 0155778 282.6384 075.7453 15.07705364191828
NUSAT 1
1 41557U 16033B   19296.88366996 +.00001185 +00000-0 +46788-4 0  9999
2 41557 097.4145 023.6369 0013126 202.0695 157.9980 15.27461148189501
BEESAT 4
1 41619U 16040W   19296.82541865 +.00001232 +00000-0 +54694-4 0  9998
2 41619 097.3538 356.6012 0009756 300.8379 059.1898 15.23388605173213
PRATHAM
1 41783U 16059A   19296.67415633 +.00000043 +00000-0 +17683-4 0  9992
2 41783 098.0530 353.3556 0033132 346.9438 013.0903 14.63015436164111
ALSAT 1N
1 41789U 16059G   19296.89603017 +.00000080 +00000-0 +24219-4 0  9991
2 41789 098.0560 355.8480 0027805 335.6005 024.3865 14.64269641164266
NAYIF 1
1 42017U 17008BX  19296.74120321 +.00001374 +00000-0 +56532-4 0  9997
2 42017 097.3905 002.4571 0007930 084.2793 275.9350 15.25813745149297
MAX VALIER SAT
1 42778U 17036P   19296.73766239 +.00000855 +00000-0 +40158-4 0  9995
2 42778 097.3403 351.5164 0013621 133.4039 226.8334 15.22196685129563
